CW9114 Weather Reports


Display with metric or nautical units.
time (UTC)temp
F
wind
direction
speed
MPH
gust
MPH
rain 1hr
in
rain 24hr
in
rain mn
in
humidity
%
barometer
mb
20260903161541 74 30 0.0 3.0 0.00 0.00 0.00 68 1015.4
20260903160036 72 101 0.0 3.0 0.00 0.00 0.00 73 1015.3
20260903154519 70 127 0.0 2.0 0.00 0.00 0.00 79 1015.4
20260903153028 69 58 1.0 3.0 0.00 0.00 0.00 80 1015.3
20260903151531 67 51 1.0 4.0 0.00 0.00 0.00 82 1015.3
20260903150008 66 51 0.0 4.0 0.00 0.00 0.00 89 1015.4
20260903144516 65 41 0.0 3.0 0.00 0.00 0.00 92 1015.5
20260903143028 64 34 0.0 2.0 0.00 0.00 0.00 97 1015.7
20260903141505 63 34 0.0 2.0 0.00 0.00 0.00 97 1015.7
20260903140014 62 34 0.0 1.0 0.00 0.00 0.00 97 1015.7
20260903134512 60 37 0.0 1.0 0.00 0.00 0.00 97 1015.8
20260903133023 58 39 0.0 0.0 0.00 0.00 0.00 97 1015.8
20260903131526 57 360 0.0 0.0 0.00 0.00 0.00 97 1015.7
20260903130006 56 360 0.0 0.0 0.00 0.00 0.00 96 1015.6
20260903124508 55 360 0.0 0.0 0.00 0.00 0.00 96 1015.5
20260903123015 54 360 0.0 0.0 0.00 0.00 0.00 96 1015.5
20260903121538 54 360 0.0 0.0 0.00 0.00 0.00 96 1015.3
20260903120028 54 360 0.0 0.0 0.00 0.00 0.00 95 1015.1
20260903114508 53 360 0.0 0.0 0.00 0.00 0.00 95 1015.0
20260903113017 54 360 0.0 0.0 0.00 0.00 0.00 95 1014.9
20260903111516 54 360 0.0 0.0 0.00 0.00 0.00 95 1014.8
20260903110023 54 360 0.0 0.0 0.00 0.00 0.00 95 1014.6
20260903104533 54 360 0.0 0.0 0.00 0.00 0.00 95 1014.8
20260903103010 54 360 0.0 0.0 0.00 0.00 0.00 95 1015.0
20260903101519 55 360 0.0 0.0 0.00 0.00 0.00 95 1014.7
20260903100024 55 360 0.0 0.0 0.00 0.00 0.00 95 1014.6
20260903094527 55 360 0.0 0.0 0.00 0.00 0.00 95 1014.6
20260903093032 56 360 0.0 0.0 0.00 0.00 0.00 95 1014.6
20260903091512 56 360 0.0 0.0 0.00 0.00 0.00 95 1014.4
20260903090014 56 360 0.0 0.0 0.00 0.00 0.00 95 1014.4
20260903084523 56 360 0.0 0.0 0.00 0.00 0.00 95 1014.5
20260903083028 56 360 0.0 0.0 0.00 0.00 0.00 95 1014.5
20260903081534 56 360 0.0 0.0 0.00 0.00 0.00 95 1014.5
20260903080013 56 360 0.0 0.0 0.00 0.00 0.00 95 1014.4
20260903074518 56 360 0.0 0.0 0.00 0.00 0.00 95 1014.5
20260903073038 56 360 0.0 0.0 0.00 0.00 0.00 95 1014.5
20260903071530 57 360 0.0 0.0 0.00 0.00 0.00 95 1014.4
20260903070033 57 360 0.0 0.0 0.00 0.00 0.00 95 1014.3
20260903064514 57 360 0.0 0.0 0.00 0.00 0.00 94 1014.5
20260903063024 57 360 0.0 0.0 0.00 0.00 0.00 94 1014.4
20260903061527 57 360 0.0 0.0 0.00 0.00 0.00 94 1014.3
20260903060010 58 360 0.0 0.0 0.00 0.00 0.00 94 1014.2
20260903054510 58 360 0.0 0.0 0.00 0.00 0.00 94 1014.1
20260903053018 58 360 0.0 0.0 0.00 0.00 0.00 94 1014.2
20260903051525 58 360 0.0 0.0 0.00 0.00 0.00 94 1014.3
20260903050031 58 360 0.0 0.0 0.00 0.00 0.00 94 1014.2
20260903044507 59 360 0.0 0.0 0.00 0.00 0.00 93 1014.3
20260903043011 59 360 0.0 0.0 0.00 0.00 0.00 93 1014.2
20260903041521 59 360 0.0 0.0 0.00 0.00 0.00 93 1014.1
20260903040031 60 360 0.0 0.0 0.00 0.00 0.00 93 1014.2
20260903034531 60 360 0.0 0.0 0.00 0.00 0.00 92 1014.2
20260903033013 60 360 0.0 0.0 0.00 0.00 0.00 92 1014.0
20260903031516 61 360 0.0 0.0 0.00 0.00 0.00 92 1014.0
20260903030029 61 360 0.0 0.0 0.00 0.00 0.00 92 1014.0
20260903024528 61 360 0.0 0.0 0.00 0.00 0.00 92 1014.0
20260903023035 61 360 0.0 0.0 0.00 0.00 0.00 92 1013.9
20260903021514 61 360 0.0 1.0 0.00 0.00 0.00 92 1013.8
20260903020033 61 360 0.0 0.0 0.00 0.00 0.00 91 1013.7
20260903014527 62 360 0.0 0.0 0.00 0.00 0.00 91 1013.7
20260903013043 62 360 0.0 0.0 0.00 0.00 0.00 90 1013.7
20260903011533 63 360 0.0 0.0 0.00 0.00 0.00 90 1013.6
20260903010016 64 360 0.0 0.0 0.00 0.00 0.00 88 1013.5
20260903004525 64 360 0.0 0.0 0.00 0.00 0.00 87 1013.4
20260903003027 65 360 0.0 0.0 0.00 0.00 0.00 86 1013.4
20260903001535 66 360 0.0 0.0 0.00 0.00 0.00 84 1013.4
20260903000040 66 35 0.0 0.0 0.00 0.00 0.00 83 1013.4
20260902234517 67 35 0.0 0.0 0.00 0.00 0.00 82 1013.4
20260902233023 67 36 0.0 3.0 0.00 0.00 0.00 82 1013.3
20260902231532 68 31 0.0 5.0 0.00 0.00 0.00 81 1013.4
20260902230034 68 32 0.0 4.0 0.00 0.00 0.00 79 1013.4
20260902224515 69 196 0.0 5.0 0.00 0.00 0.00 78 1013.3
20260902223045 71 104 0.0 4.0 0.00 0.00 0.00 75 1013.2
20260902221531 73 167 0.0 6.0 0.00 0.00 0.00 70 1013.1
20260902220032 74 71 0.0 5.0 0.00 0.00 0.00 64 1013.0
20260902214534 75 56 1.0 3.0 0.00 0.00 0.00 61 1012.8
20260902213016 76 359 1.0 6.0 0.00 0.00 0.00 60 1012.8
20260902211526 76 276 1.0 3.0 0.00 0.00 0.00 58 1012.7
20260902210026 76 255 0.0 3.0 0.00 0.00 0.00 58 1012.6
20260902204544 77 335 1.0 3.0 0.00 0.00 0.00 57 1012.5
20260902203032 77 293 0.0 4.0 0.00 0.00 0.00 56 1012.5
20260902201518 78 34 1.0 5.0 0.00 0.00 0.00 55 1012.5
20260902200024 79 261 1.0 3.0 0.00 0.00 0.00 56 1012.7
20260902194531 79 359 1.0 4.0 0.00 0.00 0.00 58 1012.7
20260902193035 79 345 0.0 3.0 0.00 0.00 0.00 57 1012.7
20260902191534 80 214 0.0 3.0 0.00 0.00 0.00 57 1012.6
20260902190024 80 71 0.0 5.0 0.00 0.00 0.00 57 1012.5
20260902184533 81 27 0.0 6.0 0.00 0.00 0.00 54 1012.4
20260902183050 81 311 0.0 7.0 0.00 0.00 0.00 54 1012.4
20260902181510 82 205 0.0 2.0 0.00 0.00 0.00 53 1012.4
20260902180014 82 155 0.0 4.0 0.00 0.00 0.00 50 1012.4
20260902174518 83 1 2.0 6.0 0.00 0.00 0.00 47 1012.5
20260902173003 82 247 1.0 3.0 0.00 0.00 0.00 50 1012.6
20260902171510 82 85 1.0 4.0 0.00 0.00 0.00 50 1012.5
20260902170015 81 23 0.0 4.0 0.00 0.00 0.00 53 1012.7
20260902164522 81 274 0.0 3.0 0.00 0.00 0.00 55 1012.9
20260902163015 79 166 0.0 2.0 0.00 0.00 0.00 58 1012.9